www.pogodaiklimat.ru
ПОГОДА в Флагстаффе
Время
и дата
23:57 05.02
00:27 06.02
00:57 06.02
01:07 06.02
01:57 06.02
02:57 06.02
03:30 06.02
03:44 06.02
03:57 06.02
04:57 06.02
05:57 06.02
06:57 06.02
07:57 06.02
08:57 06.02
09:57 06.02
10:57 06.02
11:57 06.02
12:57 06.02
13:57 06.02
14:57 06.02
15:57 06.02
16:57 06.02
17:57 06.02
18:57 06.02
19:57 06.02
20:57 06.02
21:57 06.02
22:57 06.02
23:57 06.02
00:57 07.02
01:57 07.02
02:57 07.02
03:57 07.02
04:57 07.02
05:57 07.02
06:57 07.02
07:57 07.02
08:57 07.02
09:57 07.02
10:57 07.02
11:57 07.02
12:57 07.02
13:57 07.02
14:57 07.02
15:57 07.02
16:57 07.02
17:57 07.02
18:57 07.02
Ветер
(напр.,м/с)
Видим. Явления Облачность Т
(С)
Тd
(С)
f
(%)
Тe
(С)
Тes
(С)
Комфортность P
(гПа)
Po
(гПа)
Тmin
(С)
Tmax
(С)
R
(мм)
R24
(мм)
S
(см)
З 4 16 км 5/5 1170 м +1.7 -3.3 69 -3 -3 1012.1 783.4
З 3 13 км слабый снег 10/10 780 m
[Ns]
+1.1 -2.8 75 -3 -3 783.4
ЮЗ 3 14 км слабый снег 10/10 690 m
[Ns]
+1.1 -2.8 75 -3 -3 1011.4 782.8
ЮЗ 4 16 км 8/8 810 м +1.1 -2.8 75 -4 -4 782.8
З 3 6 км слабый снег 10/10 1410 m
[Ns]
+1.1 -2.2 79 -3 -3 1011.3 782.8 0.3
З 3 14 км слабый снег 8/5 1650 m
[Ac Ns]
+0.6 -3.3 75 -4 -4 1011.3 782.8
нст 3 4 км слабый снег 10/10 870 m
[Ns]
0.0 -3.9 75 -4 -4 783.1
нст 2 14 км слабый снег 10/10 930 m
[Ns]
-0.6 -4.4 75 -4 -4 783.1
нст 2 16 км 10/10 1170 м -1.1 -6.1 69 -5 -5 1012.2 783.1
штиль 0 16 км ясно -2.8 -6.7 74 -4 -4 1012.8 783.1 -2.8 +2.2 0.5 0.5
штиль 0 16 км ясно -5.0 -7.8 81 -6 -6 1013.2 782.6
ЮЗ 2 16 км ясно -6.7 -8.9 84 -11 -11 1014.4 782.8
штиль 0 16 км ясно -6.7 -7.8 92 -8 -8 1015.7 783.1
С 2 16 км ясно -1.7 -7.2 66 -5 -5 1014.4 783.4
В 2 16 км ясно 0.0 -10.6 45 -3 0 1014.3 783.6
СВ 8
{10}
16 км 8/8 1650 м +1.1 -8.9 47 -5 -5 1014.5 784.2 -8.3 +2.2
СВ 5 16 км 2/2 1650 м +1.7 -8.9 45 -3 0 1014.4 783.9
СВ 7
{10}
16 км 2/2 1950 м +1.7 -9.4 43 -4 -2 1013.8 783.6
СВ 6 16 км 10/8 1800 m
[Ac]
+1.1 -10.6 41 -4 -4 1013.9 783.4
СВ 5
{9}
16 км 8/5 1800 m
[Ac]
+2.2 -10.0 40 -2 -1 1013.8 783.6
СВ 6 16 км 5/0 2100 m
[Ac]
+0.6 -12.2 38 -5 -4 1015.6 784.2
СВ 6 16 км 5/0 2100 m
[Ac]
+0.6 -8.9 49 -5 -5 1016.8 784.4 +2.2
СВ 5 16 км 5/5 1950 м -1.1 -10.6 48 -7 -7 1018.3 784.9
СВ 3 16 км ясно -3.3 -11.7 52 -8 -8 1020.3 785.5
СВ 3 16 км 2/2 1950 м -3.3 -12.2 50 -8 -8 1020.6 785.7
СВ 2 16 км ясно -3.9 -12.2 52 -7 -7 1019.7 786.0
СВ 7
{12}
16 км 2/2 1800 м -2.8 -8.9 63 -10 -10 1018.7 786.0
СВ 5 16 км ясно -3.3 -9.4 63 -10 -10 1018.7 786.0 -4.4 +0.6
СВ 7 16 км ясно -2.8 -10.0 58 -10 -10 1018.7 786.2
С 6
{9}
16 км ясно -2.2 -10.6 53 -9 -9 1018.8 786.5
СВ 4
{9}
16 км ясно -2.8 -11.1 53 -8 -8 1019.5 786.8
С 6
{11}
16 км ясно -2.8 -11.1 53 -10 -10 1019.3 786.8
С 6
{12}
16 км ясно -2.2 -11.1 50 -9 -9 1019.9 787.0
С 4 16 км ясно -2.8 -11.7 50 -8 -8 1020.4 787.3 -3.9 -1.7
С 5
{10}
16 км ясно -2.8 -11.7 50 -9 -9 1021.1 787.6
СВ 4
{10}
16 км ясно -2.8 -12.2 48 -8 -8 1022.3 787.8
В 5
{9}
16 км ясно -2.8 -11.7 50 -9 -9 1023.2 788.6
СВ 4
{9}
16 км ясно -1.7 -11.1 49 -7 -6 1024.3 789.4
С 7
{11}
16 км ясно -0.6 -10.6 47 -7 -6 1024.0 789.4
СВ 7
{10}
16 км ясно 0.0 -10.0 47 -6 -5 1024.6 789.9 -3.3 +0.6
СВ 7
{12}
16 км ясно +1.1 -10.0 43 -5 -3 1023.5 789.6
СВ 7
{13}
16 км ясно +1.7 -10.0 41 -4 -2 1022.6 789.1
СВ 7 16 км ясно +2.2 -10.6 38 -3 -1 1022.6 789.4
СВ 7
{10}
16 км ясно +2.2 -10.6 38 -3 -1 1022.7 789.4
В 5 16 км ясно +2.8 -11.1 35 -2 +1 1022.7 789.6
В 5 16 км ясно +2.2 -10.6 38 -2 -1 1023.0 789.6 +3.3
В 5 16 км ясно +0.6 -11.1 41 -4 -4 1023.8 789.6
СВ 3 16 км ясно -1.1 -11.7 44 -5 -5 1024.2 789.6
Местоположение метеостанции Flagstaff Pulliam Airport: широта 35.1403 долгота -111.6722 высота над уровнем моря 2137 м.
В архиве по умолчанию представлена погода в Флагстаффе за последние 1-2 суток. Обновление информации о фактической погоде в базе происходит ежечасно! Архивные данные за месяц целиком и за предыдущие месяцы Вы можете получить, выбрав интересующий диапазон дат из раскрывающегося списка и нажав кнопку "Ввод!".
Внимание! Архив погоды МЕТАР в базе сайта по станциям, не включенным в климатический монитор, хранится не более 60 дней. Нет смысла пытаться выбрать более раннюю дату.
*Определитесь, кто Вы:
Внимание! Время в таблицах - местное (без учета летнего времени). Для получения всемирного времени необходимо вычесть поправку, которая равна -7 ч.
Смотрите также архив погоды в соседних городах и на ближайших метеорологических станциях:
Партнеры нашего сайта:      
Пояснения к столбцам:
  • Ветер - указаны скорость ветра в м/с - средняя за 10 мин, порывы в срок и между сроками (в фигурных скобках) и направление, откуда дует ветер: С - северный,
  • СВ - северо-восточный, В - восточный, ЮВ - юго-восточный, Ю - южный, ЮЗ - юго-западный, З - западный, СЗ - северо-западный.
  • Видимость - горизонтальная дальность видимости в метрах или километрах. При видимости от 1 до 10 км при отсутствии осадков обычно наблюдается дымка, при ухудшении видимости до 1 км и менее - туман. В сухую погоду видимость может ухудшаться дымом, пылью или мглою.
  • Явления - указаны атмосферные явления, наблюдавшиеся в срок или в последний час перед сроком; фигурными скобками обозначены явления, наблюдавшиеся между сроками (за 1-3 часа до срока); квадратными скобками обозначены град или гололедные отложения с указанием их диаметра в мм.
  • Облачность - указаны через наклонную черту общая и нижняя облачность в баллах и высота нижней границы облаков в метрах; квадратными скобками обозначены формы облаков: Ci - перистые, Cs - перисто-слоистые, Cc - перисто-кучевые, Ac - высококучевые, As - высокослоистые, Sc - слоисто-кучевые, Ns - слоисто-дождевые, Cu - кучевые, Cb - кучево-дождевые. Подробнее классификацию облаков см. в Атласе облаков (PDF).
  • T - Температура воздуха - температура, измеренная на высоте 2 м над землей.
  • Td - Температура точки росы - температура, при понижении до которой содержащийся в воздухе водяной пар достигнет насыщения.
  • f - Относительная влажность воздуха - влажноcть воздуха, измеренная на высоте 2 м над землей.
  • Te - Эффективная температура - температура, которую ощущает одетый по сезону человек в тени. Характеристика душности погоды. При расчете учитывается влияние влажности воздуха и скорости ветра на теплоощущения человека.
  • Tes - Эффективная температура на солнце - температура, которую ощущает человек, с поправкой на солнечный нагрев. Характеристика знойности погоды. Зависит от высоты солнца над горизонтом, облачности и скорости ветра. Ночью, в пасмурную погоду, а также при ветре 12 м/с и более поправка равна нулю.
  • P - Атмосферное давление - приведенное к уровню моря атмосферное давление.
  • Po - Атмосферное давление - измеренное на уровне метеостанции атмосферное давление.
  • Tmin - Минимальная температура - минимум температуры воздуха на высоте 2 м над землей.
  • Tmax - Максимальная температура - максимум температуры воздуха на высоте 2 м над землей.
  • R - Количество осадков - Количество выпавших осадков за период времени, мм. При наведении курсора мыши на число - период времени, за который выпало указанное количество осадков.
  • R24 - Количество осадков - Количество выпавших осадков за 24 часа, мм.
  • S - Снежный покров - Высота снежного покрова, см. При наведении курсора мыши на число - состояние снежного покрова и степень покрытия местности в баллах.